Location: Newark
(7.0858°N, 171.3717°E)
Time: 04:20:39
(UTC+00:00)

Vanguard 2 - Pass Details

Date: 04 December 2020
Orbit: 553 x 2937 km, 32.9° (Epoch: 26 January)

Event Time Altitude Azimuth Distance (km) Brightness Sun altitude
Rises 04:01:27 0° 304° (NW) 2,758 10.7 29.4°
Reaches altitude 10° 04:03:26 10° 305° (NW) 1,942 10.0 29.0°
Maximum altitude 04:07:44 88° 37° (NE) 735 7.9 28.0°
Drops below altitude 10° 04:14:03 10° 124° (SE) 2,815 10.2 26.7°
Sets 04:17:27 0° 124° (SE) 4,136 11.0 25.9°
